This is the latest recevied weather packets stored in our database for station/object W4MJZ-1. If no packets are shown the sender has not sent any weather packets the latest 10 day(s).
| Time | Temp. | Humidity | Pressure | Rain* | Wind** | Luminosity | Snow |
|---|---|---|---|---|---|---|---|
| 1777901195 | 18.89° C | 34% | 1021.1 hPa | 0 mm | - | - | - |
| 1777900938 | 18.89° C | 34% | 1021.1 hPa | 0 mm | - | - | - |
| 1777900922 | 18.33° C | 34% | 1021.1 hPa | 0 mm | - | - | - |
| 1777900638 | 18.33° C | 34% | 1021.1 hPa | 0 mm | - | - | - |
| 1777900339 | 18.33° C | 35% | 1020.3 hPa | 0 mm | - | - | - |
| 1777900039 | 18.33° C | 34% | 1020.7 hPa | 0 mm | - | - | - |
| 1777899965 | 17.78° C | 34% | 1020.7 hPa | 0 mm | - | - | - |
| 1777899739 | 17.78° C | 34% | 1020.7 hPa | 0 mm | - | - | - |
| 1777899685 | 17.78° C | 35% | 1021.1 hPa | 0 mm | - | - | - |
| 1777899439 | 17.78° C | 35% | 1021.1 hPa | 0 mm | - | - | - |
| 1777899139 | 17.78° C | 35% | 1021.1 hPa | 0 mm | - | - | - |
| 1777898839 | 17.78° C | 35% | 1020.7 hPa | 0 mm | - | - | - |
| 1777898656 | 17.78° C | 35% | 1020.7 hPa | 0 mm | - | - | - |
| 1777898543 | 17.78° C | 35% | 1020.7 hPa | 0 mm | - | - | - |
| 1777898540 | 17.78° C | 34% | 1020.7 hPa | 0 mm | - | - | - |
| 1777898239 | 17.78° C | 34% | 1020.7 hPa | 0 mm | - | - | - |
| 1777898049 | 18.33° C | 34% | 1020.3 hPa | 0 mm | - | - | - |
| 1777897939 | 18.33° C | 34% | 1020.3 hPa | 0 mm | - | - | - |
| 1777897639 | 17.78° C | 34% | 1020.3 hPa | 0 mm | - | - | - |
| 1777897339 | 18.33° C | 34% | 1020.3 hPa | 0 mm | - | - | - |
| 1777897040 | 18.33° C | 33% | 1020.3 hPa | 0 mm | - | - | - |
| 1777896739 | 18.89° C | 33% | 1020.3 hPa | 0 mm | - | - | - |
| 1777896439 | 18.89° C | 32% | 1020.3 hPa | 0 mm | - | - | - |
| 1777896245 | 19.44° C | 32% | 1020.3 hPa | 0 mm | - | - | - |
| 1777896139 | 19.44° C | 32% | 1020.3 hPa | 0 mm | - | - | - |
* Rain latest hour (hover to see other rain measurements)
** Current wind speed in m/s (hover to see current wind gust speed)